Zhongxing 1D

operational
NORAD ID: 49505 Int'l Des: 2021-114 Owner: ZLZB Country: CN
HEOCIRCULARGSOGEO

Über Zhongxing 1D

Beschreibung wird geladen...

Live-Position

3D-Globus wird geladen...

Nächste Überflüge

Höhenverlauf

Altitude vs Time

uPlot chart will show altitude changes over time

Zweizeiliger Elementsatz

1 49505U 21114A 26072.59589900 .00000000 00000-0 00000-0 0 9994
2 49505 0.0155 141.4891 0002024 70.1904 304.2079 1.00267646 15860
Epoch: 13. März 2026 • Age: 67 hours

Aktueller Status

Höhe 35779.4 km
Geschwindigkeit 3.08 km/s
Subsatellitenpunkt 0.04°N, 130.12°E
Startdatum 26. Nov. 2021
Alter 4.2 years
Typ other

Technische Details

Klassifizierung Payload
Masse 5250.00 kg
Trockenmasse 2500.00 kg
Gesamtmasse 5250.00 kg
Länge 5.00 m
Durchmesser 2.50 m
Spannweite 30.00 m
Form Box + 2 Pan
Hersteller CAST
Bus-Typ DFH-4
Phasenstatus In Orbit
Besitzer/Staat ZLZB/CN

Große Konstellationen

Loading constellations...